GLOBALSTAR M074

Last updated on Sun Jun 21 2026 00:03:18 GMT+0000 (Coordinated Universal Time)

1 37189U 10054B 26171.19051524 -.00000093 00000+0 59540-4 0 9991 2 37189 52.0014 98.7910 0000616 56.2996 90.9323 12.62268375723534
UTC large
Height (km)
Speed (km/s)
/
Latitude / Longitude
Inclination (degrees)
Orbital Period (minutes)
Azimuth
Elevation
Range (km)
Doppler Factor

Next 0 passes for location: London (51.5072 / 0.1276)

No passes found over London.
GLOBALSTAR M074